COSMOS 2228

Last updated on Thu Oct 30 2025 00:02:15 GMT+0000 (Coordinated Universal Time)

1 22286U 92094A 25302.49535928 .00002754 00000+0 23984-3 0 9997 2 22286 82.5207 2.8585 0018712 28.3167 331.9067 14.96433557756431
UTC large
Height (km)
Speed (km/s)
/
Latitude / Longitude
Inclination (degrees)
Orbital Period (minutes)
Azimuth
Elevation
Range (km)
Doppler Factor

Next 0 passes for location: London (51.5072 / 0.1276)

Sorry there are no passes over London.